AAL1040 KDCA-KBOS

Flight info

Callsign AAL1040
Flight time 1h 9m
Altitude 39000
Route SOOKI6 SWANN BROSS Q419 JFK ROBUC3
Aircraft B738/M-SDE2E3FGHIRWXY/LB1

Departure

Time 2026-05-06 00:53
Airport Ronald Reagan Washington National Airport (KDCA)

Arrival

Time 2026-05-06 02:03
Airport Boston Logan International Airport (KBOS)
Time Latitude Longitude Altitude Speed Heading
2026-05-06 00:03 38.85233 -77.04063 22 ft 0 kts 262°
2026-05-06 00:42 38.85235 -77.04045 22 ft 3 kts 262°
2026-05-06 00:42 38.85237 -77.04019 22 ft 3 kts 269°
2026-05-06 00:42 38.85236 -77.03995 21 ft 3 kts 300°
2026-05-06 00:42 38.85229 -77.03984 21 ft 1 kts 354°
2026-05-06 00:43 38.85228 -77.03984 21 ft 0 kts 356°
2026-05-06 00:45 38.85235 -77.03985 21 ft 3 kts 356°
2026-05-06 00:45 38.85268 -77.03988 21 ft 6 kts 355°
2026-05-06 00:46 38.85317 -77.03994 22 ft 8 kts 354°
2026-05-06 00:46 38.85369 -77.04000 23 ft 8 kts 355°
2026-05-06 00:46 38.85424 -77.04005 25 ft 8 kts 356°
2026-05-06 00:46 38.85483 -77.04010 25 ft 9 kts 356°
2026-05-06 00:47 38.85545 -77.04027 29 ft 9 kts 344°
2026-05-06 00:47 38.85607 -77.04038 27 ft 9 kts 355°
2026-05-06 00:47 38.85669 -77.04045 28 ft 9 kts 355°
2026-05-06 00:47 38.85732 -77.04053 29 ft 10 kts 354°
2026-05-06 00:48 38.85762 -77.04056 28 ft 0 kts 355°
2026-05-06 00:48 38.85764 -77.04056 28 ft 1 kts 356°
2026-05-06 00:48 38.85768 -77.04057 28 ft 1 kts 356°
2026-05-06 00:48 38.85772 -77.04057 28 ft 0 kts 356°
2026-05-06 00:49 38.85774 -77.04057 28 ft 1 kts 356°
2026-05-06 00:49 38.85782 -77.04058 28 ft 1 kts 356°
2026-05-06 00:49 38.85796 -77.04059 27 ft 3 kts 356°
2026-05-06 00:49 38.85825 -77.04062 26 ft 5 kts 356°
2026-05-06 00:50 38.85866 -77.04065 27 ft 7 kts 356°
2026-05-06 00:50 38.85912 -77.04057 28 ft 7 kts 18°
2026-05-06 00:50 38.85957 -77.04039 26 ft 7 kts 17°
2026-05-06 00:50 38.86001 -77.04022 28 ft 7 kts 17°
2026-05-06 00:51 38.86045 -77.04004 28 ft 6 kts 20°
2026-05-06 00:51 38.86067 -77.03987 26 ft 0 kts 40°
2026-05-06 00:51 38.86071 -77.03981 25 ft 3 kts 46°
2026-05-06 00:52 38.86083 -77.03941 23 ft 7 kts 78°
2026-05-06 00:52 38.86063 -77.03876 23 ft 9 kts 148°
2026-05-06 00:52 38.86006 -77.03862 24 ft 8 kts 175°
2026-05-06 00:52 38.85945 -77.03856 30 ft 14 kts 175°
2026-05-06 00:53 38.85560 -77.03818 28 ft 97 kts 175°
2026-05-06 00:53 38.84649 -77.03741 139 ft 156 kts 179°
2026-05-06 00:53 38.83477 -77.03656 804 ft 177 kts 178°
2026-05-06 00:53 38.82205 -77.03448 1549 ft 191 kts 174°
2026-05-06 00:54 38.80824 -77.03111 1895 ft 212 kts 174°
2026-05-06 00:54 38.79370 -77.02768 2550 ft 217 kts 175°
2026-05-06 00:54 38.77870 -77.02423 3417 ft 221 kts 174°
2026-05-06 00:54 38.76466 -77.01553 4381 ft 235 kts 147°
2026-05-06 00:55 38.75442 -76.99796 5025 ft 267 kts 120°
2026-05-06 00:55 38.75108 -76.97327 5616 ft 295 kts 93°
2026-05-06 00:55 38.75567 -76.94704 6421 ft 310 kts 68°
2026-05-06 00:55 38.76677 -76.92337 7337 ft 310 kts 57°
2026-05-06 00:56 38.77935 -76.90068 8136 ft 315 kts 54°
2026-05-06 00:56 38.79235 -76.87804 9031 ft 315 kts 53°
2026-05-06 00:56 38.80535 -76.85541 9901 ft 317 kts 52°
2026-05-06 00:56 38.81858 -76.83223 10420 ft 331 kts 52°
2026-05-06 00:57 38.83264 -76.80740 10611 ft 356 kts 53°
2026-05-06 00:57 38.84736 -76.78118 10907 ft 374 kts 53°
2026-05-06 00:57 38.86289 -76.75333 11501 ft 382 kts 53°
2026-05-06 00:57 38.87834 -76.72549 12293 ft 384 kts 53°
2026-05-06 00:58 38.89388 -76.69742 13068 ft 388 kts 53°
2026-05-06 00:58 38.90959 -76.66900 13802 ft 393 kts 53°
2026-05-06 00:58 38.92549 -76.64021 14495 ft 398 kts 53°
2026-05-06 00:58 38.94159 -76.61102 15190 ft 403 kts 53°
2026-05-06 00:59 38.95789 -76.58145 15904 ft 407 kts 54°
2026-05-06 00:59 38.97414 -76.55195 16576 ft 412 kts 54°
2026-05-06 00:59 38.99082 -76.52163 17243 ft 418 kts 54°
2026-05-06 00:59 39.00766 -76.49099 17891 ft 422 kts 54°
2026-05-06 01:00 39.02465 -76.46005 18550 ft 427 kts 54°
2026-05-06 01:00 39.04195 -76.42852 19052 ft 434 kts 54°
2026-05-06 01:00 39.05940 -76.39668 19652 ft 437 kts 54°
2026-05-06 01:00 39.07695 -76.36462 20303 ft 440 kts 54°
2026-05-06 01:01 39.09468 -76.33226 20888 ft 443 kts 54°
2026-05-06 01:01 39.11252 -76.29964 21443 ft 447 kts 54°
2026-05-06 01:01 39.13040 -76.26659 21989 ft 451 kts 57°
2026-05-06 01:01 39.14533 -76.23088 22513 ft 455 kts 68°
2026-05-06 01:02 39.15561 -76.19258 23048 ft 457 kts 77°
2026-05-06 01:02 39.16122 -76.15224 23566 ft 459 kts 84°
2026-05-06 01:02 39.16547 -76.11128 24020 ft 461 kts 85°
2026-05-06 01:02 39.16966 -76.07020 24504 ft 464 kts 84°
2026-05-06 01:03 39.17411 -76.02890 24954 ft 466 kts 83°
2026-05-06 01:03 39.17868 -75.98851 25379 ft 469 kts 83°
2026-05-06 01:03 39.18350 -75.94685 25835 ft 471 kts 82°
2026-05-06 01:03 39.19192 -75.90591 26241 ft 476 kts 68°
2026-05-06 01:04 39.20698 -75.86776 26667 ft 477 kts 58°
2026-05-06 01:04 39.22553 -75.83217 27067 ft 478 kts 49°
2026-05-06 01:04 39.24742 -75.80042 27461 ft 479 kts 44°
2026-05-06 01:04 39.27064 -75.76940 27876 ft 480 kts 43°
2026-05-06 01:05 39.29431 -75.73851 28273 ft 482 kts 43°
2026-05-06 01:05 39.31773 -75.70797 28650 ft 484 kts 43°
2026-05-06 01:05 39.34143 -75.67682 29022 ft 486 kts 43°
2026-05-06 01:05 39.36511 -75.64535 29416 ft 488 kts 43°
2026-05-06 01:06 39.38879 -75.61361 29756 ft 491 kts 43°
2026-05-06 01:06 39.41252 -75.58161 30078 ft 493 kts 43°
2026-05-06 01:06 39.43602 -75.54981 30369 ft 494 kts 43°
2026-05-06 01:06 39.45983 -75.51752 30685 ft 495 kts 43°
2026-05-06 01:07 39.48355 -75.48533 31087 ft 493 kts 43°
2026-05-06 01:07 39.50716 -75.45324 31554 ft 490 kts 43°
2026-05-06 01:07 39.53062 -75.42134 31994 ft 488 kts 42°
2026-05-06 01:07 39.55388 -75.38968 32548 ft 483 kts 42°
2026-05-06 01:08 39.57705 -75.35813 32928 ft 482 kts 41°
2026-05-06 01:08 39.60021 -75.32660 33226 ft 483 kts 41°
2026-05-06 01:08 39.62337 -75.29504 33558 ft 483 kts 41°
2026-05-06 01:08 39.64649 -75.26349 33959 ft 481 kts 41°
2026-05-06 01:09 39.66923 -75.23240 34322 ft 478 kts 41°
2026-05-06 01:09 39.69215 -75.20104 34652 ft 477 kts 41°
2026-05-06 01:09 39.71504 -75.16970 34951 ft 477 kts 41°
2026-05-06 01:09 39.73786 -75.13841 35256 ft 476 kts 40°
2026-05-06 01:10 39.76061 -75.10719 35589 ft 474 kts 40°
2026-05-06 01:10 39.78327 -75.07607 35906 ft 472 kts 40°
2026-05-06 01:10 39.80579 -75.04509 36262 ft 469 kts 41°
2026-05-06 01:10 39.82804 -75.01442 36761 ft 463 kts 40°
2026-05-06 01:11 39.84206 -74.99511 36918 ft 464 kts 40°
2026-05-06 01:11 39.89412 -74.92338 36924 ft 469 kts 40°
2026-05-06 01:12 39.93869 -74.86172 36930 ft 465 kts 40°
2026-05-06 01:12 39.98276 -74.80063 36926 ft 463 kts 40°
2026-05-06 01:13 40.02710 -74.73914 36578 ft 470 kts 41°
2026-05-06 01:13 40.04955 -74.70796 36332 ft 471 kts 41°
2026-05-06 01:13 40.07199 -74.67669 36074 ft 470 kts 41°
2026-05-06 01:13 40.09444 -74.64539 35787 ft 470 kts 41°
2026-05-06 01:14 40.13882 -74.58342 35306 ft 470 kts 41°
2026-05-06 01:14 40.16121 -74.55213 35065 ft 470 kts 41°
2026-05-06 01:14 40.18355 -74.52089 34824 ft 471 kts 41°
2026-05-06 01:15 40.20620 -74.48987 34590 ft 470 kts 38°
2026-05-06 01:15 40.23071 -74.46169 34368 ft 467 kts 34°
2026-05-06 01:15 40.25604 -74.43499 34136 ft 468 kts 32°
2026-05-06 01:15 40.28169 -74.40859 33899 ft 469 kts 32°
2026-05-06 01:16 40.30738 -74.38204 33665 ft 471 kts 33°
2026-05-06 01:16 40.33275 -74.35545 33384 ft 473 kts 34°
2026-05-06 01:16 40.35844 -74.32821 33123 ft 474 kts 34°
2026-05-06 01:16 40.38404 -74.30081 32825 ft 476 kts 34°
2026-05-06 01:17 40.40966 -74.27329 32568 ft 477 kts 35°
2026-05-06 01:17 40.43534 -74.24565 32299 ft 478 kts 35°
2026-05-06 01:17 40.45239 -74.22730 32131 ft 478 kts 35°
2026-05-06 01:17 40.47817 -74.19958 31900 ft 480 kts 35°
2026-05-06 01:18 40.50404 -74.17174 31644 ft 482 kts 36°
2026-05-06 01:18 40.52890 -74.14191 31377 ft 488 kts 45°
2026-05-06 01:18 40.54952 -74.10627 31137 ft 493 kts 56°
2026-05-06 01:18 40.56549 -74.06622 30897 ft 497 kts 67°
2026-05-06 01:19 40.57640 -74.02294 30690 ft 498 kts 73°
2026-05-06 01:19 40.58562 -73.98045 30440 ft 495 kts 73°
2026-05-06 01:19 40.59496 -73.93712 30181 ft 488 kts 73°
2026-05-06 01:19 40.60445 -73.89449 29936 ft 483 kts 73°
2026-05-06 01:20 40.61421 -73.85201 29657 ft 483 kts 73°
2026-05-06 01:20 40.62394 -73.81011 29383 ft 483 kts 72°
2026-05-06 01:20 40.63552 -73.76860 29107 ft 482 kts 65°
2026-05-06 01:20 40.65157 -73.73003 28837 ft 480 kts 56°
2026-05-06 01:21 40.66983 -73.69333 28576 ft 478 kts 55°
2026-05-06 01:21 40.68831 -73.65688 28304 ft 477 kts 55°
2026-05-06 01:21 40.70672 -73.62057 28016 ft 476 kts 54°
2026-05-06 01:21 40.72498 -73.58428 27757 ft 473 kts 55°
2026-05-06 01:22 40.74307 -73.54800 27495 ft 471 kts 55°
2026-05-06 01:22 40.76075 -73.51227 27241 ft 469 kts 55°
2026-05-06 01:22 40.77853 -73.47616 27011 ft 466 kts 56°
2026-05-06 01:22 40.79615 -73.44025 26953 ft 466 kts 56°
2026-05-06 01:23 40.81375 -73.40432 26912 ft 465 kts 56°
2026-05-06 01:23 40.83132 -73.36841 26912 ft 465 kts 56°
2026-05-06 01:23 40.84799 -73.33429 26911 ft 465 kts 56°
2026-05-06 01:23 40.86554 -73.29835 26888 ft 465 kts 55°
2026-05-06 01:24 40.88281 -73.26293 26895 ft 462 kts 56°
2026-05-06 01:24 40.90021 -73.22723 26896 ft 460 kts 56°
2026-05-06 01:24 40.91751 -73.19168 26902 ft 459 kts 56°
2026-05-06 01:24 40.93477 -73.15620 26904 ft 459 kts 56°
2026-05-06 01:25 40.95205 -73.12062 26962 ft 459 kts 56°
2026-05-06 01:25 40.96937 -73.08493 26958 ft 461 kts 56°
2026-05-06 01:25 40.98671 -73.04915 26957 ft 462 kts 56°
2026-05-06 01:25 41.00405 -73.01333 26962 ft 463 kts 56°
2026-05-06 01:26 41.02100 -72.97826 26948 ft 464 kts 56°
2026-05-06 01:26 41.03841 -72.94220 26946 ft 465 kts 56°
2026-05-06 01:26 41.05560 -72.90657 26933 ft 464 kts 56°
2026-05-06 01:26 41.07294 -72.87056 26929 ft 463 kts 56°
2026-05-06 01:27 41.09024 -72.83460 26915 ft 462 kts 56°
2026-05-06 01:27 41.10755 -72.79857 26931 ft 461 kts 56°
2026-05-06 01:27 41.12479 -72.76267 26929 ft 460 kts 56°
2026-05-06 01:27 41.13868 -72.73369 26921 ft 460 kts 56°
2026-05-06 01:28 41.15584 -72.69787 26920 ft 460 kts 56°
2026-05-06 01:28 41.17275 -72.66252 26928 ft 459 kts 56°
2026-05-06 01:28 41.18997 -72.62651 26927 ft 459 kts 56°
2026-05-06 01:28 41.20704 -72.59074 26934 ft 459 kts 55°
2026-05-06 01:29 41.22410 -72.55496 26951 ft 459 kts 55°
2026-05-06 01:29 41.24117 -72.51911 26947 ft 458 kts 55°
2026-05-06 01:29 41.25821 -72.48330 26947 ft 458 kts 55°
2026-05-06 01:29 41.27523 -72.44748 26959 ft 459 kts 56°
2026-05-06 01:30 41.29224 -72.41164 26956 ft 459 kts 56°
2026-05-06 01:30 41.30930 -72.37564 26954 ft 460 kts 56°
2026-05-06 01:30 41.32637 -72.33960 26950 ft 461 kts 56°
2026-05-06 01:30 41.34348 -72.30341 26797 ft 462 kts 56°
2026-05-06 01:31 41.36054 -72.26730 26533 ft 459 kts 56°
2026-05-06 01:31 41.37720 -72.23196 26283 ft 455 kts 55°
2026-05-06 01:31 41.39395 -72.19641 26027 ft 452 kts 56°
2026-05-06 01:31 41.41065 -72.16092 25772 ft 450 kts 56°
2026-05-06 01:32 41.42724 -72.12563 25243 ft 446 kts 56°
2026-05-06 01:32 41.44363 -72.09071 24741 ft 442 kts 56°
2026-05-06 01:32 41.45988 -72.05606 24227 ft 438 kts 56°
2026-05-06 01:32 41.47600 -72.02165 23679 ft 436 kts 56°
2026-05-06 01:33 41.49161 -71.98831 23054 ft 434 kts 56°
2026-05-06 01:33 41.50753 -71.95425 22500 ft 431 kts 56°
2026-05-06 01:33 41.52332 -71.92044 21952 ft 427 kts 57°
2026-05-06 01:33 41.53876 -71.88733 21421 ft 424 kts 57°
2026-05-06 01:34 41.55428 -71.85403 20903 ft 421 kts 57°
2026-05-06 01:34 41.56970 -71.82089 20401 ft 418 kts 57°
2026-05-06 01:34 41.58500 -71.78799 19862 ft 416 kts 57°
2026-05-06 01:34 41.60025 -71.75514 19345 ft 414 kts 57°
2026-05-06 01:35 41.61541 -71.72247 18824 ft 412 kts 57°
2026-05-06 01:35 41.63048 -71.68994 18301 ft 411 kts 58°
2026-05-06 01:35 41.64517 -71.65821 18068 ft 401 kts 58°
2026-05-06 01:35 41.65968 -71.62682 17824 ft 391 kts 58°
2026-05-06 01:36 41.67378 -71.59629 17646 ft 381 kts 58°
2026-05-06 01:36 41.68626 -71.56546 17310 ft 376 kts 67°
2026-05-06 01:36 41.69556 -71.53289 16910 ft 372 kts 71°
2026-05-06 01:36 41.70424 -71.50037 16527 ft 370 kts 70°
2026-05-06 01:37 41.71318 -71.46826 16147 ft 367 kts 70°
2026-05-06 01:37 41.72236 -71.43637 15750 ft 365 kts 69°
2026-05-06 01:37 41.73321 -71.40576 15365 ft 363 kts 60°
2026-05-06 01:37 41.74611 -71.37680 14984 ft 361 kts 58°
2026-05-06 01:38 41.75914 -71.34811 14608 ft 359 kts 58°
2026-05-06 01:38 41.77183 -71.31925 14204 ft 359 kts 59°
2026-05-06 01:38 41.78427 -71.29033 13816 ft 358 kts 59°
2026-05-06 01:38 41.79659 -71.26141 13404 ft 356 kts 60°
2026-05-06 01:39 41.80884 -71.23262 13013 ft 354 kts 60°
2026-05-06 01:39 41.82086 -71.20434 12633 ft 352 kts 60°
2026-05-06 01:39 41.83292 -71.17597 12270 ft 349 kts 60°
2026-05-06 01:39 41.84484 -71.14789 12065 ft 341 kts 60°
2026-05-06 01:40 41.85645 -71.12056 11933 ft 332 kts 60°
2026-05-06 01:40 41.86787 -71.09398 11777 ft 325 kts 59°
2026-05-06 01:40 41.87919 -71.06786 11637 ft 323 kts 59°
2026-05-06 01:40 41.89044 -71.04188 11495 ft 322 kts 59°
2026-05-06 01:41 41.90179 -71.01563 11361 ft 326 kts 59°
2026-05-06 01:41 41.91276 -70.99023 11223 ft 328 kts 59°
2026-05-06 01:41 41.92421 -70.96369 11077 ft 328 kts 59°
2026-05-06 01:41 41.93561 -70.93720 10926 ft 327 kts 60°
2026-05-06 01:42 41.94699 -70.91074 10777 ft 326 kts 60°
2026-05-06 01:42 41.95831 -70.88441 10638 ft 325 kts 60°
2026-05-06 01:42 41.96962 -70.85806 10478 ft 325 kts 59°
2026-05-06 01:42 41.98089 -70.83181 10350 ft 324 kts 59°
2026-05-06 01:43 41.99214 -70.80555 10204 ft 323 kts 60°
2026-05-06 01:43 42.00329 -70.77952 10073 ft 320 kts 60°
2026-05-06 01:43 42.01489 -70.75439 9808 ft 314 kts 51°
2026-05-06 01:43 42.02914 -70.73227 9510 ft 312 kts 45°
2026-05-06 01:44 42.04406 -70.71117 9205 ft 310 kts 45°
2026-05-06 01:44 42.05878 -70.69009 8913 ft 308 kts 45°
2026-05-06 01:44 42.07323 -70.66885 8619 ft 306 kts 46°
2026-05-06 01:44 42.08746 -70.64762 8333 ft 304 kts 46°
2026-05-06 01:45 42.10177 -70.62674 8042 ft 301 kts 39°
2026-05-06 01:45 42.11949 -70.61298 7764 ft 291 kts 13°
2026-05-06 01:45 42.13883 -70.60647 7517 ft 285 kts
2026-05-06 01:45 42.15800 -70.60136 7255 ft 284 kts
2026-05-06 01:46 42.17738 -70.59633 6998 ft 283 kts
2026-05-06 01:46 42.19674 -70.59122 6690 ft 284 kts
2026-05-06 01:46 42.21616 -70.58599 6422 ft 284 kts
2026-05-06 01:46 42.23550 -70.58068 6150 ft 284 kts
2026-05-06 01:47 42.25497 -70.57528 5856 ft 284 kts
2026-05-06 01:47 42.27429 -70.56989 5578 ft 284 kts
2026-05-06 01:47 42.29365 -70.56447 5308 ft 283 kts
2026-05-06 01:47 42.31294 -70.56012 5026 ft 276 kts 352°
2026-05-06 01:48 42.33066 -70.56603 4933 ft 258 kts 324°
2026-05-06 01:48 42.34509 -70.57924 4901 ft 250 kts 310°
2026-05-06 01:48 42.35767 -70.59523 4918 ft 246 kts 307°
2026-05-06 01:48 42.36974 -70.61148 4892 ft 244 kts 306°
2026-05-06 01:49 42.38169 -70.62763 4890 ft 242 kts 307°
2026-05-06 01:49 42.39360 -70.64363 4882 ft 241 kts 307°
2026-05-06 01:49 42.40552 -70.65954 4878 ft 240 kts 307°
2026-05-06 01:49 42.41748 -70.67544 4869 ft 239 kts 307°
2026-05-06 01:50 42.42936 -70.69118 4873 ft 239 kts 307°
2026-05-06 01:50 42.44126 -70.70696 4888 ft 244 kts 307°
2026-05-06 01:50 42.45350 -70.72316 4890 ft 246 kts 308°
2026-05-06 01:50 42.46578 -70.73934 4879 ft 245 kts 307°
2026-05-06 01:51 42.47797 -70.75542 4868 ft 245 kts 307°
2026-05-06 01:51 42.49016 -70.77152 4872 ft 244 kts 307°
2026-05-06 01:51 42.50233 -70.78758 4881 ft 243 kts 307°
2026-05-06 01:51 42.51447 -70.80322 4868 ft 239 kts 313°
2026-05-06 01:52 42.52955 -70.81244 4869 ft 248 kts 342°
2026-05-06 01:52 42.54703 -70.81129 4864 ft 258 kts
2026-05-06 01:52 42.56414 -70.80359 4871 ft 260 kts 13°
2026-05-06 01:52 42.58115 -70.79482 4871 ft 263 kts 14°
2026-05-06 01:53 42.59838 -70.78599 4811 ft 264 kts 13°
2026-05-06 01:53 42.61534 -70.77743 4731 ft 256 kts 13°
2026-05-06 01:53 42.63191 -70.76964 4694 ft 245 kts
2026-05-06 01:53 42.64777 -70.77098 4724 ft 221 kts 327°
2026-05-06 01:54 42.66015 -70.78232 4729 ft 212 kts 303°
2026-05-06 01:54 42.66768 -70.79850 4732 ft 201 kts 282°
2026-05-06 01:54 42.66969 -70.81658 4638 ft 190 kts 262°
2026-05-06 01:54 42.66633 -70.83367 4332 ft 189 kts 244°
2026-05-06 01:55 42.65873 -70.84832 4028 ft 192 kts 228°
2026-05-06 01:55 42.64764 -70.85860 3801 ft 196 kts 210°
2026-05-06 01:55 42.63514 -70.86568 3597 ft 194 kts 210°
2026-05-06 01:55 42.62273 -70.87273 3415 ft 190 kts 210°
2026-05-06 01:56 42.61055 -70.87962 3175 ft 190 kts 210°
2026-05-06 01:56 42.59829 -70.88657 3062 ft 192 kts 208°
2026-05-06 01:56 42.58601 -70.89350 3004 ft 194 kts 209°
2026-05-06 01:56 42.57366 -70.90045 3003 ft 190 kts 209°
2026-05-06 01:57 42.56157 -70.90725 2992 ft 183 kts 210°
2026-05-06 01:57 42.55031 -70.91419 2977 ft 174 kts 210°
2026-05-06 01:57 42.53922 -70.92034 2997 ft 170 kts 207°
2026-05-06 01:57 42.52817 -70.92595 3002 ft 169 kts 207°
2026-05-06 01:58 42.51732 -70.93127 2922 ft 159 kts 208°
2026-05-06 01:58 42.50741 -70.93605 2742 ft 141 kts 209°
2026-05-06 01:58 42.49874 -70.94025 2565 ft 127 kts 208°
2026-05-06 01:58 42.49082 -70.94405 2446 ft 117 kts 210°
2026-05-06 01:59 42.48341 -70.94768 2300 ft 111 kts 210°
2026-05-06 01:59 42.47631 -70.95113 2136 ft 106 kts 210°
2026-05-06 01:59 42.46927 -70.95458 2007 ft 109 kts 209°
2026-05-06 01:59 42.46221 -70.95800 1858 ft 106 kts 209°
2026-05-06 02:00 42.45533 -70.96132 1724 ft 106 kts 208°
2026-05-06 02:00 42.44827 -70.96476 1582 ft 111 kts 207°
2026-05-06 02:00 42.44075 -70.96837 1423 ft 115 kts 206°
2026-05-06 02:00 42.43335 -70.97193 1257 ft 114 kts 205°
2026-05-06 02:01 42.42573 -70.97568 1129 ft 121 kts 205°
2026-05-06 02:01 42.41780 -70.97951 950 ft 121 kts 203°
2026-05-06 02:01 42.41252 -70.98207 857 ft 123 kts 202°
2026-05-06 02:01 42.40431 -70.98604 694 ft 128 kts 201°
2026-05-06 02:02 42.39584 -70.99017 553 ft 130 kts 200°
2026-05-06 02:02 42.38738 -70.99441 330 ft 130 kts 199°
2026-05-06 02:02 42.37898 -70.99826 142 ft 125 kts 201°
2026-05-06 02:02 42.37097 -71.00217 33 ft 117 kts 201°
2026-05-06 02:03 42.36432 -71.00545 25 ft 82 kts 200°
2026-05-06 02:03 42.36039 -71.00730 28 ft 38 kts 200°
2026-05-06 02:03 42.35888 -71.00804 26 ft 19 kts 200°
2026-05-06 02:03 42.35827 -71.00852 27 ft 8 kts 225°
2026-05-06 02:04 42.35811 -71.00922 24 ft 8 kts 275°
2026-05-06 02:04 42.35819 -71.00996 26 ft 8 kts 278°
2026-05-06 02:04 42.35827 -71.01067 24 ft 7 kts 278°
2026-05-06 02:04 42.35835 -71.01135 28 ft 7 kts 278°
2026-05-06 02:05 42.35840 -71.01202 24 ft 7 kts 277°
2026-05-06 02:05 42.35847 -71.01265 28 ft 7 kts 279°
2026-05-06 02:05 42.35854 -71.01329 24 ft 7 kts 278°
2026-05-06 02:05 42.35860 -71.01391 24 ft 7 kts 277°
2026-05-06 02:06 42.35867 -71.01452 24 ft 6 kts 280°
2026-05-06 02:06 42.35876 -71.01511 27 ft 6 kts 281°
2026-05-06 02:06 42.35884 -71.01569 24 ft 6 kts 281°
2026-05-06 02:06 42.35892 -71.01625 26 ft 6 kts 280°
2026-05-06 02:07 42.35899 -71.01681 24 ft 6 kts 280°
2026-05-06 02:07 42.35906 -71.01736 26 ft 6 kts 280°
2026-05-06 02:07 42.35914 -71.01790 24 ft 6 kts 283°
2026-05-06 02:07 42.35929 -71.01840 26 ft 6 kts 301°
2026-05-06 02:08 42.35965 -71.01845 28 ft 6 kts 16°
2026-05-06 02:08 42.35990 -71.01833 26 ft 0 kts 21°
2026-05-06 02:08 42.35991 -71.01833 24 ft 0 kts 21°
2026-05-06 03:47 42.35977 -71.01840 30 ft 3 kts 20°
2026-05-06 03:48 42.35959 -71.01850 27 ft 3 kts 28°
2026-05-06 03:48 42.35944 -71.01863 30 ft 3 kts 66°
2026-05-06 03:48 42.35942 -71.01875 30 ft 1 kts 115°
2026-05-06 03:53 42.35939 -71.01866 30 ft 2 kts 113°
2026-05-06 03:53 42.35931 -71.01836 28 ft 5 kts 108°
2026-05-06 03:53 42.35917 -71.01783 28 ft 7 kts 109°
2026-05-06 03:53 42.35904 -71.01708 29 ft 9 kts 101°
2026-05-06 03:54 42.35891 -71.01612 24 ft 11 kts 98°
2026-05-06 03:54 42.35937 -71.01529 26 ft 13 kts 24°
2026-05-06 03:54 42.36027 -71.01484 24 ft 15 kts 20°
2026-05-06 03:54 42.36128 -71.01435 26 ft 16 kts 20°
2026-05-06 03:55 42.36239 -71.01381 26 ft 18 kts 20°
2026-05-06 03:55 42.36363 -71.01321 29 ft 20 kts 20°
2026-05-06 03:55 42.36491 -71.01259 25 ft 19 kts 20°
2026-05-06 03:55 42.36615 -71.01200 27 ft 19 kts 20°
2026-05-06 03:56 42.36736 -71.01149 24 ft 18 kts
2026-05-06 03:56 42.36842 -71.01220 24 ft 17 kts 316°
2026-05-06 03:56 42.36928 -71.01331 24 ft 17 kts 316°
2026-05-06 03:56 42.37010 -71.01438 24 ft 16 kts 316°
2026-05-06 03:57 42.37087 -71.01543 24 ft 15 kts 314°
2026-05-06 03:57 42.37160 -71.01646 26 ft 15 kts 314°
2026-05-06 03:57 42.37229 -71.01742 27 ft 14 kts 315°
2026-05-06 03:57 42.37300 -71.01831 24 ft 14 kts 320°
2026-05-06 03:58 42.37381 -71.01825 26 ft 13 kts 52°
2026-05-06 03:58 42.37370 -71.01717 24 ft 13 kts 134°
2026-05-06 03:58 42.37305 -71.01631 24 ft 15 kts 135°
2026-05-06 03:58 42.37169 -71.01447 25 ft 58 kts 135°
2026-05-06 03:59 42.36681 -71.00805 27 ft 135 kts 135°
2026-05-06 03:59 42.35852 -70.99773 252 ft 180 kts 150°
2026-05-06 03:59 42.34784 -70.98646 748 ft 206 kts 151°
2026-05-06 03:59 42.33572 -70.97492 1347 ft 220 kts 158°
2026-05-06 04:00 42.32280 -70.96425 2246 ft 211 kts 171°
2026-05-06 04:00 42.30913 -70.96415 2525 ft 202 kts 221°
2026-05-06 04:00 42.30302 -70.98120 2975 ft 223 kts 268°
2026-05-06 04:00 42.30507 -71.00213 3690 ft 228 kts 264°
2026-05-06 04:01 42.30229 -71.02310 4443 ft 228 kts 256°
2026-05-06 04:01 42.29878 -71.04430 5173 ft 234 kts 257°
2026-05-06 04:01 42.29528 -71.06600 5918 ft 238 kts 257°
2026-05-06 04:01 42.29171 -71.08817 6632 ft 244 kts 257°
2026-05-06 04:02 42.28808 -71.11065 7383 ft 246 kts 257°
2026-05-06 04:02 42.28440 -71.13343 7824 ft 248 kts 257°
2026-05-06 04:02 42.28068 -71.15633 7988 ft 250 kts 257°
2026-05-06 04:02 42.27694 -71.17929 8013 ft 251 kts 257°
2026-05-06 04:03 42.27318 -71.20230 8012 ft 250 kts 257°
2026-05-06 04:03 42.26947 -71.22493 8012 ft 250 kts 257°
2026-05-06 04:03 42.26571 -71.24785 8012 ft 250 kts 257°
2026-05-06 04:03 42.26193 -71.27082 7986 ft 251 kts 257°
2026-05-06 04:04 42.25813 -71.29389 7997 ft 251 kts 257°
2026-05-06 04:04 42.25433 -71.31695 7999 ft 252 kts 257°
2026-05-06 04:04 42.25051 -71.34008 8001 ft 253 kts 257°
2026-05-06 04:04 42.24667 -71.36326 7992 ft 254 kts 257°
2026-05-06 04:05 42.24280 -71.38657 7993 ft 254 kts 257°
2026-05-06 04:05 42.23893 -71.40988 8000 ft 255 kts 257°
2026-05-06 04:05 42.23509 -71.43293 7997 ft 255 kts 257°
2026-05-06 04:05 42.23119 -71.45629 7988 ft 255 kts 257°
2026-05-06 04:06 42.22729 -71.47958 8003 ft 254 kts 257°
2026-05-06 04:06 42.22338 -71.50275 8010 ft 253 kts 257°
2026-05-06 04:06 42.21946 -71.52592 8012 ft 253 kts 257°
2026-05-06 04:06 42.21557 -71.54909 8010 ft 253 kts 257°
2026-05-06 04:07 42.21172 -71.57223 8012 ft 252 kts 257°
2026-05-06 04:07 42.20794 -71.59502 8008 ft 252 kts 257°
2026-05-06 04:07 42.20416 -71.61801 8015 ft 251 kts 257°
2026-05-06 04:07 42.19976 -71.64081 8006 ft 250 kts 253°
2026-05-06 04:08 42.19464 -71.66320 8004 ft 250 kts 252°
2026-05-06 04:08 42.18939 -71.68546 8015 ft 249 kts 252°
2026-05-06 04:08 42.18410 -71.70777 8006 ft 250 kts 252°
2026-05-06 04:08 42.17882 -71.73004 8015 ft 249 kts 252°
2026-05-06 04:09 42.17354 -71.75230 8010 ft 249 kts 252°
2026-05-06 04:09 42.16825 -71.77454 8011 ft 249 kts 252°
2026-05-06 04:09 42.16294 -71.79680 7988 ft 250 kts 252°
2026-05-06 04:09 42.15764 -71.81908 8001 ft 250 kts 252°
2026-05-06 04:10 42.15234 -71.84149 7995 ft 250 kts 252°
2026-05-06 04:10 42.14705 -71.86396 7994 ft 251 kts 252°
2026-05-06 04:10 42.14186 -71.88612 7992 ft 251 kts 252°
2026-05-06 04:10 42.13656 -71.90857 8000 ft 251 kts 251°
2026-05-06 04:11 42.13048 -71.93063 8009 ft 251 kts 249°
2026-05-06 04:11 42.12415 -71.95260 8007 ft 250 kts 249°
2026-05-06 04:11 42.11788 -71.97448 8001 ft 250 kts 249°
2026-05-06 04:11 42.11165 -71.99638 7995 ft 249 kts 249°
2026-05-06 04:12 42.10567 -72.01747 8003 ft 248 kts 249°
2026-05-06 04:12 42.10096 -72.03957 7998 ft 247 kts 259°
2026-05-06 04:12 42.09914 -72.06257 7836 ft 249 kts 264°
2026-05-06 04:12 42.09819 -72.08551 7702 ft 242 kts 265°
2026-05-06 04:13 42.09733 -72.10791 7486 ft 237 kts 265°
2026-05-06 04:13 42.09643 -72.12986 7260 ft 233 kts 265°
2026-05-06 04:13 42.09548 -72.15158 7002 ft 231 kts 264°
2026-05-06 04:13 42.09448 -72.17316 6738 ft 230 kts 264°
2026-05-06 04:14 42.09345 -72.19453 6485 ft 227 kts 264°
2026-05-06 04:14 42.09240 -72.21568 6238 ft 227 kts 264°
2026-05-06 04:14 42.09131 -72.23701 5971 ft 229 kts 264°
2026-05-06 04:14 42.09025 -72.25801 5754 ft 227 kts 264°
2026-05-06 04:15 42.08918 -72.27898 5631 ft 219 kts 264°
2026-05-06 04:15 42.08815 -72.29897 5541 ft 207 kts 263°
2026-05-06 04:15 42.08714 -72.31803 5256 ft 202 kts 264°
2026-05-06 04:15 42.08612 -72.33693 4859 ft 202 kts 263°
2026-05-06 04:16 42.08509 -72.35567 4484 ft 199 kts 263°
2026-05-06 04:16 42.08407 -72.37412 4246 ft 198 kts 261°
2026-05-06 04:16 42.08306 -72.39237 3976 ft 194 kts 261°
2026-05-06 04:16 42.08211 -72.41039 3647 ft 192 kts 261°
2026-05-06 04:17 42.08115 -72.42849 3258 ft 195 kts 260°
2026-05-06 04:17 42.08019 -72.44649 3081 ft 192 kts 261°
2026-05-06 04:17 42.07930 -72.46422 2994 ft 183 kts 260°
2026-05-06 04:17 42.07851 -72.48070 2983 ft 168 kts 260°
2026-05-06 04:18 42.07740 -72.49564 2959 ft 154 kts 249°
2026-05-06 04:18 42.07185 -72.50706 2983 ft 145 kts 231°
2026-05-06 04:18 42.06555 -72.51777 2974 ft 143 kts 233°
2026-05-06 04:18 42.05951 -72.52779 2953 ft 133 kts 231°
2026-05-06 04:19 42.05347 -72.53661 2907 ft 123 kts 230°
2026-05-06 04:19 42.04780 -72.54438 2767 ft 112 kts 230°
2026-05-06 04:19 42.04240 -72.55163 2632 ft 110 kts 230°
2026-05-06 04:19 42.03698 -72.55880 2487 ft 109 kts 229°
2026-05-06 04:20 42.03162 -72.56588 2345 ft 108 kts 229°
2026-05-06 04:20 42.02622 -72.57298 2210 ft 110 kts 227°
2026-05-06 04:20 42.02072 -72.58020 2066 ft 112 kts 227°
2026-05-06 04:20 42.01520 -72.58745 1917 ft 112 kts 226°
2026-05-06 04:21 42.00948 -72.59495 1762 ft 116 kts 225°
2026-05-06 04:21 42.00348 -72.60281 1620 ft 123 kts 225°
2026-05-06 04:21 41.99727 -72.61097 1451 ft 125 kts 226°
2026-05-06 04:21 41.99104 -72.61914 1269 ft 125 kts 226°
2026-05-06 04:22 41.98473 -72.62744 1106 ft 133 kts 225°
2026-05-06 04:22 41.97808 -72.63645 939 ft 139 kts 225°
2026-05-06 04:22 41.97090 -72.64560 765 ft 148 kts 224°
2026-05-06 04:23 41.95656 -72.66488 367 ft 146 kts 221°
2026-05-06 04:23 41.94924 -72.67419 201 ft 142 kts 223°
2026-05-06 04:23 41.94268 -72.68264 183 ft 111 kts 224°
2026-05-06 04:23 41.93818 -72.68840 181 ft 68 kts 224°
2026-05-06 04:24 41.93588 -72.69138 193 ft 24 kts 224°
2026-05-06 04:24 41.93537 -72.69205 188 ft 7 kts 224°
2026-05-06 04:24 41.93494 -72.69263 184 ft 11 kts 226°
2026-05-06 04:24 41.93431 -72.69349 183 ft 15 kts 224°
2026-05-06 04:25 41.93358 -72.69446 184 ft 15 kts 225°
2026-05-06 04:25 41.93286 -72.69542 182 ft 14 kts 225°
2026-05-06 04:25 41.93201 -72.69583 186 ft 14 kts 161°
2026-05-06 04:25 41.93148 -72.69489 181 ft 13 kts 94°
2026-05-06 04:26 41.93195 -72.69386 183 ft 13 kts 44°
2026-05-06 04:26 41.93260 -72.69301 182 ft 13 kts 44°
2026-05-06 04:26 41.93323 -72.69219 184 ft 12 kts 43°
2026-05-06 04:26 41.93385 -72.69140 187 ft 12 kts 44°
2026-05-06 04:27 41.93446 -72.69062 186 ft 12 kts 44°
2026-05-06 04:27 41.93504 -72.68986 186 ft 12 kts 48°
2026-05-06 04:27 41.93462 -72.68914 183 ft 12 kts 142°
2026-05-06 04:27 41.93412 -72.68830 182 ft 11 kts 118°
2026-05-06 04:28 41.93416 -72.68734 182 ft 11 kts 43°
2026-05-06 04:28 41.93447 -72.68650 182 ft 11 kts 83°
2026-05-06 04:28 41.93488 -72.68570 180 ft 11 kts 31°
2026-05-06 04:28 41.93554 -72.68594 180 ft 11 kts 305°
2026-05-06 04:29 41.93586 -72.68646 180 ft 11 kts 317°
2026-05-06 04:29 41.93658 -72.68734 183 ft 10 kts 310°
2026-05-06 04:29 41.93624 -72.68787 188 ft 10 kts 175°
2026-05-06 04:29 41.93558 -72.68771 183 ft 10 kts 207°
2026-05-06 04:30 41.93528 -72.68812 183 ft 10 kts 275°
2026-05-06 04:30 41.93507 -72.68884 183 ft 10 kts 195°
2026-05-06 04:30 41.93472 -72.68821 182 ft 7 kts 107°
2026-05-06 04:30 41.93469 -72.68801 182 ft 0 kts 105°
2026-05-06 04:31 41.93468 -72.68795 182 ft 0 kts 102°